Hourly Weather Roundup
Issued by NWS Central Illinois

Home | Current Version | Previous Version | Text Only | Print | Product List | Glossary On
Versions: 1 2 3 4 5 6 7 8 9 10 11 12 13 14 15 16 17 18 19 20 21 22 23 24 25 26 27 28 29 30 31 32 33 34 35 36 37 38 39 40 41 42 43 44 45 46 47 48 49 50
969
NZUS43 KILX 261910
HWRILX

Area Weather Roundup
National Weather Service Lincoln IL
200 PM CDT MON JUN 26 2017

NOTE:  "FAIR" indicates few or no clouds below 12,000 feet, with
       no sigificant weather and/or obstructions to visibility.


CITY           SKY/WX    TMP DP  RH WIND       PRES   REMARKS
Bloomington    PTSUNNY   67  50  54 W15G26    30.15F
Champaign      CLOUDY    70  46  42 W18       30.17R
Danville       CLOUDY    69  46  43 W13G18    30.12S
Decatur        LGT RAIN  64  50  60 W12G20    30.17F
Effingham      MOSUNNY   74  49  40 NW16G23   30.20S
Flora          MOSUNNY   78  48  35 NW9G17    30.18S
Galesburg      CLOUDY    70  54  55 W15G22    30.14F
Jacksonville   CLOUDY    65  51  59 SW8       30.19F
Lacon          MOSUNNY   71  51  49 W12G18    30.11F
Lawrenceville  MOSUNNY   77  49  37 W13       30.16F
Litchfield     LGT RAIN  66  52  61 N14       30.21R
$$


CITY           SKY/WX    TMP DP  RH WIND       PRES   REMARKS
Lincoln        PTSUNNY   68  53  57 W7        30.17F
Macomb         PTSUNNY   68  55  63 W12G18    30.19F
Mattoon        LGT RAIN  67  52  58 W18       30.19R
Mt Carmel AP   MOSUNNY   76  48  36 NW8       30.16F
Olney-Noble AP MOSUNNY   76  52  41 W13       30.17F
Paris AP       PTSUNNY   70  50  49 W17G26    30.16F
Peoria         MOSUNNY   71  51  49 W18       30.14F
Pontiac        PTSUNNY   71  49  46 W22G28    30.12F
Rantoul        CLOUDY    70  48  45 W12G22    30.15S
Robinson       CLOUDY    74  50  42 NW10G17   30.17F
Springfield    CLOUDY    65  57  75 SW12      30.19F
Taylorville    CLOUDY    66  50  54 NW9       30.20F
$$

...REGIONAL REPORTS...


CITY           SKY/WX    TMP DP  RH WIND       PRES   REMARKS
Chicago O`Hare PTSUNNY   72  43  35 NW18G26   30.05F
Kankakee       CLOUDY    73  47  40 W20G26    30.09F
Moline         CLOUDY    73  53  49 W15G25    30.11F
Mount Sterling CLOUDY    65  52  61 SW7       30.18F
Mount Vernon   MOSUNNY   77  48  35 VRB3      30.16F
Pittsfield     PTSUNNY   67  52  58 W3        30.20F
Quincy         CLOUDY    67  52  58 SW7       30.18F
Rockford       PTSUNNY   71  43  36 NW17G25   30.09F
$$


CITY           SKY/WX    TMP DP  RH WIND       PRES   REMARKS
Burlington     PTSUNNY   69  53  56 VRB6      30.16F
Cedar Rapids   MOSUNNY   71  50  47 NW18G24   30.12F
Des Moines     MOSUNNY   70  54  56 CALM      30.15F
Kirksville     MOSUNNY   70  54  56 SW8G17    30.18F
Ottumwa        PTSUNNY   71  54  54 W9        30.16F
St Louis       CLOUDY    77  46  33 N8        30.19F
$$


CITY           SKY/WX    TMP DP  RH WIND       PRES   REMARKS
Terre Haute    PTSUNNY   72  47  40 NW10G20   30.15S
Evansville     MOSUNNY   77  49  37 W9        30.17F
Indianapolis   PTSUNNY   72  47  40 W15G23    30.12F
Lafayette      CLOUDY    68  48  48 W13G21    30.11F
Madison        PTSUNNY   64  45  49 NW13G25   30.08F
Milwaukee      PTSUNNY   66  43  43 NW17G26   30.04F
$$






USA.gov is the U.S. government's official web portal to all federal, state and local government web resources and services.